Weather History for Warroad, MN

Change the Weather History Date:

Sunday, December 25, 2011

  Actual Average Record
Temperature  
Mean Temperature 32 °F -  
Max Temperature 35 °F 11 °F 44 °F (1999)
Min Temperature 30 °F -7 °F -33 °F (1948)
Degree Days  
Heating Degree Days 32    
Moisture  
Dew Point 26 °F    
Average Humidity 73    
Maximum Humidity 87    
Minimum Humidity 65    
Precipitation  
Precipitation 0.00 in - - ()
Sea Level Pressure  
Sea Level Pressure 30.05 in    
Wind  
Wind Speed 10 mph (West)    
Max Wind Speed 22 mph    
Max Gust Speed 29 mph    
Visibility 10 miles    
Events Snow    
Averages and records for this station are not official NWS values.
T = Trace of Precipitation, MM = Missing Value Source: NWS Daily Summary

Daily Weather History Graph

Daily Weather History Graph

Search for Another Location

Airport:

Trip Planner

Search our weather history database for the weather conditions in past years. The results will help you decide how hot, cold, wet, or windy it might be!

Date:

Astronomy

Dec. 25, 2011 Rise Set
Actual Time 8:14 AM CST 4:28 PM CST
Civil Twilight 7:36 AM CST 5:06 PM CST
Nautical Twilight 6:56 AM CST 5:46 PM CST
Astronomical Twilight 6:17 AM CST 6:25 PM CST
Moon 8:49 AM CST (12/25) 5:55 PM CST (12/25)
Length of Visible Light 9h 29m
Length of Day
8h 14m
New Moon, 1% of the Moon is Illuminated
Dec 25
New Moon
Jan 1
First Quarter
Jan 9
Full
Jan 16
Last Quarter
Jan 23
New

Hourly Weather History & Observations

Time (CST) Temp. Windchill Dew Point Humidity Pressure Visibility Wind Dir Wind Speed Gust Speed Precip Events Conditions
12:14 AM 32.0 °F 25.6 °F 28.4 °F 87% 29.88 in 10.0 mi West 6.9 mph - N/A   Overcast
12:34 AM 32.0 °F 24.8 °F 28.4 °F 87% 29.89 in 10.0 mi West 8.1 mph - N/A   Overcast
12:54 AM 33.8 °F 25.8 °F 28.4 °F 81% 29.89 in 10.0 mi West 10.4 mph - N/A   Overcast
1:14 AM 33.8 °F 25.3 °F 28.4 °F 81% 29.90 in 10.0 mi West 11.5 mph - N/A   Mostly Cloudy
1:34 AM 32.0 °F 24.2 °F 28.4 °F 87% 29.91 in 10.0 mi West 9.2 mph 16.1 mph N/A   Scattered Clouds
1:54 AM 33.8 °F 25.3 °F 28.4 °F 81% 29.92 in 10.0 mi West 11.5 mph 17.3 mph N/A Snow Light Snow
2:14 AM 33.8 °F 25.3 °F 28.4 °F 81% 29.93 in 10.0 mi West 11.5 mph 17.3 mph N/A   Overcast
2:34 AM 33.8 °F 24.8 °F 28.4 °F 81% 29.94 in 10.0 mi West 12.7 mph 19.6 mph N/A   Overcast
2:54 AM 33.8 °F 25.3 °F 28.4 °F 81% 29.96 in 10.0 mi West 11.5 mph - N/A   Overcast
3:14 AM 33.8 °F 25.3 °F 26.6 °F 75% 29.97 in 10.0 mi West 11.5 mph - N/A   Overcast
3:33 AM 33.8 °F 25.3 °F 26.6 °F 75% 29.97 in 10.0 mi West 11.5 mph - N/A   Overcast
3:54 AM 33.8 °F 25.8 °F 26.6 °F 75% 29.98 in 10.0 mi West 10.4 mph - N/A   Overcast
4:14 AM 33.8 °F 27.0 °F 26.6 °F 75% 29.98 in 10.0 mi West 8.1 mph - N/A   Overcast
4:33 AM 33.8 °F 24.8 °F 26.6 °F 75% 30.00 in 10.0 mi WNW 12.7 mph 18.4 mph N/A   Overcast
4:54 AM 33.8 °F 24.3 °F 26.6 °F 75% 30.01 in 10.0 mi WNW 13.8 mph 20.7 mph N/A   Overcast
5:14 AM 33.8 °F 25.3 °F 26.6 °F 75% 30.02 in 10.0 mi WNW 11.5 mph 20.7 mph N/A   Overcast
5:34 AM 33.8 °F 24.3 °F 26.6 °F 75% 30.03 in 10.0 mi WNW 13.8 mph 20.7 mph N/A   Overcast
5:54 AM 33.8 °F 21.9 °F 24.8 °F 70% 30.04 in 10.0 mi NW 21.9 mph 28.8 mph N/A   Overcast
6:14 AM 33.8 °F 22.8 °F 24.8 °F 70% 30.06 in 10.0 mi WNW 18.4 mph 21.9 mph N/A   Overcast
6:34 AM 33.8 °F 26.4 °F 26.6 °F 75% 30.06 in 10.0 mi WNW 9.2 mph 18.4 mph N/A   Overcast
6:54 AM 33.8 °F 25.3 °F 26.6 °F 75% 30.08 in 10.0 mi WNW 11.5 mph - N/A   Overcast
7:14 AM 33.8 °F 25.8 °F 26.6 °F 75% 30.08 in 10.0 mi WNW 10.4 mph - N/A   Overcast
7:33 AM 33.8 °F 24.3 °F 24.8 °F 70% 30.09 in 10.0 mi NW 13.8 mph 18.4 mph N/A   Overcast
7:54 AM 33.8 °F 25.8 °F 24.8 °F 70% 30.09 in 10.0 mi WNW 10.4 mph - N/A   Overcast
8:14 AM 33.8 °F 25.8 °F 24.8 °F 70% 30.11 in 10.0 mi WNW 10.4 mph - N/A   Overcast
8:34 AM 33.8 °F 27.7 °F 24.8 °F 70% 30.12 in 10.0 mi West 6.9 mph - N/A   Overcast
8:54 AM 33.8 °F 25.8 °F 24.8 °F 70% 30.12 in 10.0 mi WNW 10.4 mph - N/A   Overcast
9:14 AM 33.8 °F 26.4 °F 24.8 °F 70% 30.12 in 10.0 mi WNW 9.2 mph - N/A   Overcast
9:33 AM 33.8 °F 25.8 °F 24.8 °F 70% 30.13 in 10.0 mi West 10.4 mph - N/A   Overcast
9:54 AM 32.0 °F 22.5 °F 24.8 °F 75% 30.15 in 10.0 mi WNW 12.7 mph 17.3 mph N/A   Overcast
10:14 AM 32.0 °F 23.0 °F 24.8 °F 75% 30.15 in 10.0 mi WNW 11.5 mph - N/A   Overcast
10:34 AM 33.8 °F 26.4 °F 24.8 °F 70% 30.16 in 10.0 mi WNW 9.2 mph - N/A   Overcast
10:53 AM 33.8 °F 25.3 °F 24.8 °F 70% 30.16 in 10.0 mi WNW 11.5 mph - N/A   Mostly Cloudy
11:14 AM 33.8 °F 23.5 °F 23.0 °F 65% 30.17 in 10.0 mi NW 16.1 mph 25.3 mph N/A   Overcast
11:34 AM 35.6 °F 26.6 °F 24.8 °F 65% 30.16 in 10.0 mi WNW 13.8 mph 18.4 mph N/A   Mostly Cloudy
11:53 AM 35.6 °F 28.0 °F 24.8 °F 65% 30.15 in 10.0 mi West 10.4 mph 20.7 mph N/A   Mostly Cloudy
12:14 PM 35.6 °F 27.5 °F 24.8 °F 65% 30.15 in 10.0 mi West 11.5 mph 16.1 mph N/A   Scattered Clouds
12:33 PM 35.6 °F 26.6 °F 24.8 °F 65% 30.14 in 10.0 mi West 13.8 mph 17.3 mph N/A   Clear
12:54 PM 35.6 °F 26.6 °F 24.8 °F 65% 30.14 in 10.0 mi West 13.8 mph - N/A   Clear
1:14 PM 35.6 °F 28.0 °F 24.8 °F 65% 30.14 in 10.0 mi West 10.4 mph - N/A   Clear
1:34 PM 35.6 °F 29.2 °F 24.8 °F 65% 30.13 in 10.0 mi West 8.1 mph - N/A   Clear
1:54 PM 35.6 °F 29.2 °F 26.6 °F 70% 30.12 in 10.0 mi WSW 8.1 mph - N/A   Clear
2:14 PM 35.6 °F 28.6 °F 26.6 °F 70% 30.13 in 10.0 mi WSW 9.2 mph 16.1 mph N/A   Clear
2:34 PM 35.6 °F 28.0 °F 24.8 °F 65% 30.13 in 10.0 mi WSW 10.4 mph 16.1 mph N/A   Clear
2:53 PM 35.6 °F 28.6 °F 24.8 °F 65% 30.12 in 10.0 mi WSW 9.2 mph - N/A   Clear
3:14 PM 35.6 °F 29.2 °F 24.8 °F 65% 30.12 in 10.0 mi SW 8.1 mph - N/A   Clear
3:34 PM 35.6 °F 29.9 °F 24.8 °F 65% 30.11 in 10.0 mi SW 6.9 mph - N/A   Clear
3:53 PM 33.8 °F 27.0 °F 24.8 °F 70% 30.10 in 10.0 mi SW 8.1 mph - N/A   Clear
4:14 PM 33.8 °F 28.6 °F 24.8 °F 70% 30.09 in 10.0 mi SSW 5.8 mph - N/A   Clear
4:34 PM 33.8 °F 29.6 °F 26.6 °F 75% 30.08 in 10.0 mi SSW 4.6 mph - N/A   Clear
4:54 PM 32.0 °F 26.4 °F 24.8 °F 75% 30.07 in 10.0 mi SSW 5.8 mph - N/A   Clear
5:14 PM 30.2 °F 24.3 °F 24.8 °F 80% 30.06 in 10.0 mi SSW 5.8 mph - N/A   Clear
5:34 PM 30.2 °F 24.3 °F 24.8 °F 80% 30.06 in 10.0 mi SSW 5.8 mph - N/A   Clear
5:54 PM 30.2 °F 24.3 °F 24.8 °F 80% 30.03 in 10.0 mi South 5.8 mph - N/A   Clear
6:34 PM 32.0 °F 25.6 °F 24.8 °F 75% 30.01 in 10.0 mi South 6.9 mph - N/A   Mostly Cloudy
6:54 PM 33.8 °F 27.0 °F 24.8 °F 70% 29.99 in 10.0 mi SSW 8.1 mph - N/A   Overcast
7:14 PM 33.8 °F 27.0 °F 24.8 °F 70% 29.98 in 10.0 mi SSW 8.1 mph - N/A   Scattered Clouds
7:34 PM 33.8 °F 27.7 °F 24.8 °F 70% 29.95 in 10.0 mi South 6.9 mph - N/A   Mostly Cloudy
7:54 PM 35.6 °F 28.0 °F 24.8 °F 65% 29.93 in 10.0 mi South 10.4 mph 17.3 mph N/A   Overcast
8:33 PM 35.6 °F 27.1 °F 24.8 °F 65% 29.91 in 10.0 mi SSW 12.7 mph 19.6 mph N/A   Scattered Clouds
8:54 PM 35.6 °F 26.6 °F 24.8 °F 65% 29.89 in 10.0 mi SSW 13.8 mph 20.7 mph N/A   Clear
9:14 PM 35.6 °F 27.5 °F 24.8 °F 65% 29.87 in 10.0 mi South 11.5 mph 19.6 mph N/A   Clear
9:54 PM 35.6 °F 26.2 °F 24.8 °F 65% 29.82 in 10.0 mi SSW 15.0 mph 26.5 mph N/A   Clear
10:13 PM 35.6 °F 25.9 °F 24.8 °F 65% 29.81 in 10.0 mi SSW 16.1 mph 26.5 mph N/A   Clear
10:34 PM 35.6 °F 24.5 °F 24.8 °F 65% 29.81 in 10.0 mi SSW 20.7 mph 25.3 mph N/A   Clear
10:53 PM 35.6 °F 25.2 °F 24.8 °F 65% 29.79 in 10.0 mi SSW 18.4 mph 29.9 mph N/A   Clear
11:14 PM 35.6 °F 25.2 °F 24.8 °F 65% 29.78 in 10.0 mi SSW 18.4 mph 27.6 mph N/A   Clear
11:34 PM 35.6 °F 25.9 °F 24.8 °F 65% 29.77 in 10.0 mi SSW 16.1 mph 27.6 mph N/A   Clear
11:54 PM 35.6 °F 26.2 °F 24.8 °F 65% 29.75 in 10.0 mi SSW 15.0 mph 27.6 mph N/A   Clear